Location: Krasnoyarskiy Pitomnik
(51.1333°N, 71.6167°E)
Time: 09:47:57
(UTC+00:00)

ISS - Pass Details

Date: 02 March 2024
Orbit: 413 x 419 km, 51.6° (Epoch: 13 April)

Event Time Altitude Azimuth Distance (km) Brightness Sun altitude
Exits shadow 23:39:31 61° 115° (ESE) 488 -3.4 -21.7°
Drops below altitude 10° 23:42:25 10° 105° (ESE) 1,519 -0.1 -21.2°
Sets 23:44:31 0° 105° (ESE) 2,382 1.1 -20.9°
